Time,TemperatureF,DewpointF,PressureIn,WindDirection,WindDirectionDegrees,WindSpeedMPH,WindSpeedGustMPH,Humidity,HourlyPrecipIn,Conditions,Clouds,dailyrainin,SoftwareType,DateUTC
2013-01-10 00:00:00,40.8,29.3,29.98,West,270,9.4,11.6,63,0.00,,,0.00,WUHU216HW,2013-01-10 05:00:00,
2013-01-10 00:01:00,40.8,29.3,29.98,West,270,7.6,11.6,63,0.00,,,0.00,WUHU216HW,2013-01-10 05:01:00,
2013-01-10 00:03:00,41.0,29.0,29.98,West,270,11.9,14.5,62,0.00,,,0.00,WUHU216HW,2013-01-10 05:03:00,
2013-01-10 00:08:00,41.2,28.8,29.98,West,270,9.2,15.0,61,0.00,,,0.00,WUHU216HW,2013-01-10 05:08:00,
2013-01-10 00:13:00,41.2,28.0,29.98,WSW,248,10.1,15.0,59,0.00,,,0.00,WUHU216HW,2013-01-10 05:13:00,
2013-01-10 00:18:00,41.2,28.4,29.98,WNW,293,9.4,13.6,60,0.00,,,0.00,WUHU216HW,2013-01-10 05:18:00,
2013-01-10 00:23:00,41.0,27.8,29.98,WNW,293,12.1,13.6,59,0.00,,,0.00,WUHU216HW,2013-01-10 05:23:00,
2013-01-10 00:28:00,40.8,27.6,29.98,West,270,9.8,13.0,59,0.00,,,0.00,WUHU216HW,2013-01-10 05:28:00,
2013-01-10 00:33:00,40.6,27.4,29.98,SW,225,8.3,12.1,59,0.00,,,0.00,WUHU216HW,2013-01-10 05:33:00,
2013-01-10 00:38:00,40.6,27.4,29.98,West,270,10.7,10.7,59,0.00,,,0.00,WUHU216HW,2013-01-10 05:38:00,
2013-01-10 00:43:00,40.4,27.3,29.98,WNW,293,8.9,11.0,59,0.00,,,0.00,WUHU216HW,2013-01-10 05:43:00,
2013-01-10 00:48:00,40.6,27.0,29.98,West,270,11.4,13.2,58,0.00,,,0.00,WUHU216HW,2013-01-10 05:48:00,
2013-01-10 00:53:00,40.4,26.8,29.99,WSW,248,11.0,13.2,58,0.00,,,0.00,WUHU216HW,2013-01-10 05:53:00,
2013-01-10 00:58:00,41.0,27.0,29.99,WNW,293,11.4,14.8,57,0.00,,,0.00,WUHU216HW,2013-01-10 05:58:00,
2013-01-10 01:03:00,41.2,26.7,29.99,WNW,293,11.9,17.9,56,0.00,,,0.00,WUHU216HW,2013-01-10 06:03:00,
2013-01-10 01:08:00,41.2,26.7,29.99,SW,225,11.2,17.9,56,0.00,,,0.00,WUHU216HW,2013-01-10 06:08:00,
2013-01-10 01:13:00,41.0,26.5,29.99,West,270,13.1,13.9,56,0.00,,,0.00,WUHU216HW,2013-01-10 06:13:00,
2013-01-10 01:18:00,40.6,27.0,29.99,West,270,6.3,13.9,58,0.00,,,0.00,WUHU216HW,2013-01-10 06:18:00,
2013-01-10 01:23:00,40.3,26.7,30.00,West,270,6.5,13.2,58,0.00,,,0.00,WUHU216HW,2013-01-10 06:23:00,
2013-01-10 01:28:00,40.4,26.4,30.00,WNW,293,7.2,12.3,57,0.00,,,0.00,WUHU216HW,2013-01-10 06:28:00,
2013-01-10 01:33:00,40.4,26.4,30.00,WSW,248,6.9,12.3,57,0.00,,,0.00,WUHU216HW,2013-01-10 06:33:00,
2013-01-10 01:38:00,40.4,26.4,30.00,WNW,293,8.1,12.8,57,0.00,,,0.00,WUHU216HW,2013-01-10 06:38:00,
2013-01-10 01:43:00,40.1,26.5,30.00,WSW,248,8.5,12.8,58,0.00,,,0.00,WUHU216HW,2013-01-10 06:43:00,
2013-01-10 01:48:00,40.4,26.0,30.00,West,270,9.4,12.3,56,0.00,,,0.00,WUHU216HW,2013-01-10 06:48:00,
2013-01-10 01:53:00,40.4,26.0,30.00,WSW,248,7.4,12.3,56,0.00,,,0.00,WUHU216HW,2013-01-10 06:53:00,
2013-01-10 01:58:00,40.3,25.9,30.00,West,270,9.8,13.4,56,0.00,,,0.00,WUHU216HW,2013-01-10 06:58:00,
2013-01-10 02:03:00,40.6,26.2,30.00,WNW,293,12.3,13.6,56,0.00,,,0.00,WUHU216HW,2013-01-10 07:03:00,
2013-01-10 02:08:00,40.8,26.3,30.01,WNW,293,10.7,17.2,56,0.00,,,0.00,WUHU216HW,2013-01-10 07:08:00,
2013-01-10 02:13:00,40.8,26.3,30.01,West,270,8.7,17.2,56,0.00,,,0.00,WUHU216HW,2013-01-10 07:13:00,
2013-01-10 02:18:00,40.8,26.8,30.02,West,270,6.0,14.8,57,0.00,,,0.00,WUHU216HW,2013-01-10 07:18:00,
2013-01-10 02:23:00,40.8,26.3,30.02,WSW,248,10.7,14.8,56,0.00,,,0.00,WUHU216HW,2013-01-10 07:23:00,
2013-01-10 02:28:00,41.0,26.1,30.02,West,270,10.5,15.2,55,0.00,,,0.00,WUHU216HW,2013-01-10 07:28:00,
2013-01-10 02:33:00,41.2,25.8,30.03,WNW,293,14.9,15.9,54,0.00,,,0.00,WUHU216HW,2013-01-10 07:33:00,
2013-01-10 02:38:00,41.3,25.4,30.03,WSW,248,11.9,28.9,53,0.00,,,0.00,WUHU216HW,2013-01-10 07:38:00,
2013-01-10 02:43:00,41.2,25.8,30.03,NW,315,10.5,28.9,54,0.00,,,0.00,WUHU216HW,2013-01-10 07:43:00,
2013-01-10 02:48:00,41.0,25.2,30.03,West,270,13.3,23.0,53,0.00,,,0.00,WUHU216HW,2013-01-10 07:48:00,
2013-01-10 02:53:00,41.0,25.6,30.04,NW,315,17.3,23.0,54,0.00,,,0.00,WUHU216HW,2013-01-10 07:53:00,
2013-01-10 02:58:00,40.8,25.4,30.04,West,270,11.6,21.7,54,0.00,,,0.00,WUHU216HW,2013-01-10 07:58:00,
2013-01-10 03:03:00,40.8,25.4,30.05,West,270,16.7,25.3,54,0.00,,,0.00,WUHU216HW,2013-01-10 08:03:00,
2013-01-10 03:08:00,40.6,25.7,30.05,NW,315,19.1,25.3,55,0.00,,,0.00,WUHU216HW,2013-01-10 08:08:00,
2013-01-10 03:13:00,40.4,26.0,30.06,NW,315,8.1,20.8,56,0.00,,,0.00,WUHU216HW,2013-01-10 08:13:00,
2013-01-10 03:18:00,40.3,26.3,30.06,West,270,9.6,23.0,57,0.00,,,0.00,WUHU216HW,2013-01-10 08:18:00,
2013-01-10 03:23:00,40.1,26.5,30.06,NW,315,14.4,23.0,58,0.00,,,0.00,WUHU216HW,2013-01-10 08:23:00,
2013-01-10 03:28:00,39.9,26.8,30.07,WNW,293,10.5,19.2,59,0.00,,,0.00,WUHU216HW,2013-01-10 08:28:00,
2013-01-10 03:33:00,39.7,26.6,30.08,WNW,293,18.0,18.1,59,0.00,,,0.00,WUHU216HW,2013-01-10 08:33:00,
2013-01-10 03:38:00,39.7,26.2,30.08,West,270,13.8,20.4,58,0.00,,,0.00,WUHU216HW,2013-01-10 08:38:00,
2013-01-10 03:43:00,39.7,26.2,30.08,West,270,19.1,20.4,58,0.00,,,0.00,WUHU216HW,2013-01-10 08:43:00,
2013-01-10 03:48:00,39.7,26.6,30.08,SW,225,14.9,19.2,59,0.00,,,0.00,WUHU216HW,2013-01-10 08:48:00,
2013-01-10 03:53:00,39.5,26.4,30.09,West,270,7.6,19.2,59,0.00,,,0.00,WUHU216HW,2013-01-10 08:53:00,
2013-01-10 03:58:00,39.7,26.6,30.09,NW,315,16.0,24.4,59,0.00,,,0.00,WUHU216HW,2013-01-10 08:58:00,
2013-01-10 04:03:00,39.7,26.2,30.10,WSW,248,14.0,24.4,58,0.00,,,0.00,WUHU216HW,2013-01-10 09:03:00,
2013-01-10 04:08:00,39.4,26.3,30.10,WSW,248,8.1,17.2,59,0.00,,,0.00,WUHU216HW,2013-01-10 09:08:00,
2013-01-10 04:13:00,39.4,26.3,30.10,NW,315,9.4,17.9,59,0.00,,,0.00,WUHU216HW,2013-01-10 09:13:00,
2013-01-10 04:18:00,39.2,26.5,30.11,WNW,293,9.8,17.9,60,0.00,,,0.00,WUHU216HW,2013-01-10 09:18:00,
2013-01-10 04:23:00,39.2,26.1,30.12,NW,315,12.1,19.0,59,0.00,,,0.00,WUHU216HW,2013-01-10 09:23:00,
2013-01-10 04:28:00,39.0,25.9,30.12,NW,315,9.8,19.0,59,0.00,,,0.00,WUHU216HW,2013-01-10 09:28:00,
2013-01-10 04:33:00,39.2,26.1,30.12,WNW,293,14.2,16.3,59,0.00,,,0.00,WUHU216HW,2013-01-10 09:33:00,
2013-01-10 04:38:00,39.2,26.1,30.12,WNW,293,13.8,16.8,59,0.00,,,0.00,WUHU216HW,2013-01-10 09:38:00,
2013-01-10 04:43:00,39.0,26.3,30.12,NW,315,12.7,16.8,60,0.00,,,0.00,WUHU216HW,2013-01-10 09:43:00,
2013-01-10 04:48:00,38.8,26.2,30.12,NW,315,10.5,14.1,60,0.00,,,0.00,WUHU216HW,2013-01-10 09:48:00,
2013-01-10 04:53:00,38.8,26.2,30.13,WNW,293,11.9,17.0,60,0.00,,,0.00,WUHU216HW,2013-01-10 09:53:00,
2013-01-10 04:58:00,38.6,26.0,30.13,WSW,248,11.6,19.9,60,0.00,,,0.00,WUHU216HW,2013-01-10 09:58:00,
2013-01-10 05:03:00,38.8,26.2,30.13,NW,315,11.0,19.9,60,0.00,,,0.00,WUHU216HW,2013-01-10 10:03:00,
2013-01-10 05:08:00,38.6,26.0,30.14,NW,315,9.2,18.6,60,0.00,,,0.00,WUHU216HW,2013-01-10 10:08:00,
2013-01-10 05:13:00,38.5,26.3,30.14,NW,315,12.3,17.7,61,0.00,,,0.00,WUHU216HW,2013-01-10 10:13:00,
2013-01-10 05:18:00,38.6,26.0,30.14,WNW,293,14.9,24.4,60,0.00,,,0.00,WUHU216HW,2013-01-10 10:18:00,
2013-01-10 05:23:00,38.5,25.9,30.14,WSW,248,9.2,24.4,60,0.00,,,0.00,WUHU216HW,2013-01-10 10:23:00,
2013-01-10 05:28:00,38.3,25.7,30.14,NW,315,10.5,16.6,60,0.00,,,0.00,WUHU216HW,2013-01-10 10:28:00,
2013-01-10 05:33:00,38.3,26.1,30.15,NW,315,14.4,15.4,61,0.00,,,0.00,WUHU216HW,2013-01-10 10:33:00,
2013-01-10 05:38:00,38.3,26.1,30.15,NW,315,9.4,16.1,61,0.00,,,0.00,WUHU216HW,2013-01-10 10:38:00,
2013-01-10 05:43:00,38.1,25.9,30.15,WNW,293,6.9,16.1,61,0.00,,,0.00,WUHU216HW,2013-01-10 10:43:00,
2013-01-10 05:48:00,38.1,25.9,30.15,WNW,293,13.8,18.3,61,0.00,,,0.00,WUHU216HW,2013-01-10 10:48:00,
2013-01-10 05:53:00,37.9,25.7,30.15,NNW,338,7.6,18.3,61,0.00,,,0.00,WUHU216HW,2013-01-10 10:53:00,
2013-01-10 05:58:00,37.9,25.7,30.15,NW,315,12.1,16.8,61,0.00,,,0.00,WUHU216HW,2013-01-10 10:58:00,
2013-01-10 06:03:00,37.9,25.3,30.15,WNW,293,19.4,23.0,60,0.00,,,0.00,WUHU216HW,2013-01-10 11:03:00,
2013-01-10 06:08:00,38.2,25.6,30.16,WNW,293,11.2,23.0,60,0.00,,,0.00,WUHU216HW,2013-01-10 11:08:00,
2013-01-10 06:13:00,38.2,24.8,30.16,WNW,293,17.8,21.5,58,0.00,,,0.00,WUHU216HW,2013-01-10 11:13:00,
2013-01-10 06:18:00,38.2,25.6,30.16,WNW,293,11.0,18.6,60,0.00,,,0.00,WUHU216HW,2013-01-10 11:18:00,
2013-01-10 06:23:00,38.1,25.1,30.16,NW,315,14.9,19.5,59,0.00,,,0.00,WUHU216HW,2013-01-10 11:23:00,
2013-01-10 06:28:00,38.1,24.7,30.16,WNW,293,15.8,19.5,58,0.00,,,0.00,WUHU216HW,2013-01-10 11:28:00,
2013-01-10 06:33:00,38.3,24.9,30.17,WNW,293,7.6,18.1,58,0.00,,,0.00,WUHU216HW,2013-01-10 11:33:00,
2013-01-10 06:38:00,38.2,24.7,30.17,WNW,293,16.2,18.1,58,0.00,,,0.00,WUHU216HW,2013-01-10 11:38:00,
2013-01-10 06:43:00,38.2,24.3,30.17,NNE,23,13.8,19.5,57,0.00,,,0.00,WUHU216HW,2013-01-10 11:43:00,
2013-01-10 06:48:00,38.5,24.1,30.18,NW,315,10.5,19.5,56,0.00,,,0.00,WUHU216HW,2013-01-10 11:48:00,
2013-01-10 06:53:00,38.5,24.2,30.17,WNW,293,15.6,18.8,56,0.00,,,0.00,WUHU216HW,2013-01-10 11:53:00,
2013-01-10 06:58:00,38.5,24.2,30.18,NW,315,8.3,18.1,56,0.00,,,0.00,WUHU216HW,2013-01-10 11:58:00,
2013-01-10 07:03:00,38.6,23.8,30.18,NW,315,10.3,17.7,55,0.00,,,0.00,WUHU216HW,2013-01-10 12:03:00,
2013-01-10 07:08:00,38.6,23.8,30.19,NW,315,8.5,15.7,55,0.00,,,0.00,WUHU216HW,2013-01-10 12:08:00,
2013-01-10 07:13:00,38.6,23.4,30.20,WNW,293,6.3,15.9,54,0.00,,,0.00,WUHU216HW,2013-01-10 12:13:00,
2013-01-10 07:18:00,38.9,23.2,30.20,NW,315,6.0,15.9,53,0.00,,,0.00,WUHU216HW,2013-01-10 12:18:00,
2013-01-10 07:23:00,38.7,23.5,30.21,NW,315,9.8,14.1,54,0.00,,,0.00,WUHU216HW,2013-01-10 12:23:00,
2013-01-10 07:28:00,39.2,24.0,30.21,WNW,293,11.6,13.6,54,0.00,,,0.00,WUHU216HW,2013-01-10 12:28:00,
2013-01-10 07:33:00,41.3,25.4,30.21,WSW,248,13.3,13.6,53,0.00,,,0.00,WUHU216HW,2013-01-10 12:33:00,
2013-01-10 07:38:00,42.6,25.2,30.21,NW,315,11.0,13.4,50,0.00,,,0.00,WUHU216HW,2013-01-10 12:38:00,
2013-01-10 07:43:00,43.7,25.7,30.22,WNW,293,6.7,13.4,49,0.00,,,0.00,WUHU216HW,2013-01-10 12:43:00,
2013-01-10 07:48:00,45.6,26.4,30.22,West,270,7.6,11.0,47,0.00,,,0.00,WUHU216HW,2013-01-10 12:48:00,
2013-01-10 07:53:00,45.6,24.8,30.23,NNW,338,11.0,11.0,44,0.00,,,0.00,WUHU216HW,2013-01-10 12:53:00,
2013-01-10 07:58:00,45.0,24.3,30.23,WSW,248,7.4,11.0,44,0.00,,,0.00,WUHU216HW,2013-01-10 12:58:00,
2013-01-10 08:03:00,44.4,24.2,30.24,NW,315,6.3,14.8,45,0.00,,,0.00,WUHU216HW,2013-01-10 13:03:00,
2013-01-10 08:08:00,44.6,23.3,30.24,NW,315,13.8,14.8,43,0.00,,,0.00,WUHU216HW,2013-01-10 13:08:00,
2013-01-10 08:13:00,44.4,24.3,30.24,West,270,6.5,13.9,45,0.00,,,0.00,WUHU216HW,2013-01-10 13:13:00,
2013-01-10 08:18:00,45.0,23.6,30.25,West,270,9.4,13.4,43,0.00,,,0.00,WUHU216HW,2013-01-10 13:18:00,
2013-01-10 08:23:00,45.0,23.7,30.25,WNW,293,9.4,15.2,43,0.00,,,0.00,WUHU216HW,2013-01-10 13:23:00,
2013-01-10 08:28:00,45.2,23.3,30.25,WNW,293,7.6,15.2,42,0.00,,,0.00,WUHU216HW,2013-01-10 13:28:00,
2013-01-10 08:33:00,45.9,24.5,30.25,NW,315,11.9,14.8,43,0.00,,,0.00,WUHU216HW,2013-01-10 13:33:00,
2013-01-10 08:38:00,45.9,24.5,30.26,SW,225,12.4,15.9,43,0.00,,,0.00,WUHU216HW,2013-01-10 13:38:00,
2013-01-10 08:43:00,46.4,25.0,30.25,NW,315,12.9,16.3,43,0.00,,,0.00,WUHU216HW,2013-01-10 13:43:00,
2013-01-10 08:48:00,46.9,24.3,30.26,West,270,14.2,19.2,41,0.00,,,0.00,WUHU216HW,2013-01-10 13:48:00,
2013-01-10 08:53:00,46.3,22.4,30.26,WNW,293,18.5,19.2,39,0.00,,,0.00,WUHU216HW,2013-01-10 13:53:00,
2013-01-10 08:58:00,47.2,23.9,30.26,West,270,12.9,18.6,40,0.00,,,0.00,WUHU216HW,2013-01-10 13:58:00,
2013-01-10 09:03:00,48.3,24.3,30.26,NW,315,9.8,18.6,39,0.00,,,0.00,WUHU216HW,2013-01-10 14:03:00,
2013-01-10 09:08:00,49.6,25.5,30.27,WNW,293,17.8,17.9,39,0.00,,,0.00,WUHU216HW,2013-01-10 14:08:00,
2013-01-10 09:13:00,49.1,25.6,30.27,NNW,338,9.4,19.0,40,0.00,,,0.00,WUHU216HW,2013-01-10 14:13:00,
2013-01-10 09:18:00,47.7,24.3,30.27,NW,315,12.7,19.0,40,0.00,,,0.00,WUHU216HW,2013-01-10 14:18:00,
2013-01-10 09:23:00,46.6,25.2,30.27,SSE,158,10.7,16.8,43,0.00,,,0.00,WUHU216HW,2013-01-10 14:23:00,
2013-01-10 09:28:00,46.1,24.7,30.27,WNW,293,14.2,18.1,43,0.00,,,0.00,WUHU216HW,2013-01-10 14:28:00,
2013-01-10 09:33:00,46.2,24.7,30.27,NW,315,11.4,18.8,43,0.00,,,0.00,WUHU216HW,2013-01-10 14:33:00,
2013-01-10 09:38:00,45.8,24.4,30.27,North,0,18.0,19.9,43,0.00,,,0.00,WUHU216HW,2013-01-10 14:38:00,
2013-01-10 09:43:00,45.6,25.4,30.26,WNW,293,12.9,21.9,45,0.00,,,0.00,WUHU216HW,2013-01-10 14:43:00,
2013-01-10 09:48:00,46.0,25.7,30.27,WNW,293,13.3,21.9,45,0.00,,,0.00,WUHU216HW,2013-01-10 14:48:00,
2013-01-10 09:53:00,46.3,26.0,30.28,NW,315,9.8,19.7,45,0.00,,,0.00,WUHU216HW,2013-01-10 14:53:00,
2013-01-10 09:58:00,46.6,26.2,30.28,NNW,338,10.3,17.9,45,0.00,,,0.00,WUHU216HW,2013-01-10 14:58:00,
2013-01-10 10:03:00,46.4,25.0,30.27,WNW,293,20.5,20.6,43,0.00,,,0.00,WUHU216HW,2013-01-10 15:03:00,
2013-01-10 10:08:00,46.3,25.4,30.27,NW,315,13.1,20.6,44,0.00,,,0.00,WUHU216HW,2013-01-10 15:08:00,
2013-01-10 10:13:00,46.6,26.3,30.28,NW,315,11.9,20.6,45,0.00,,,0.00,WUHU216HW,2013-01-10 15:13:00,
2013-01-10 10:18:00,47.1,26.1,30.28,West,270,11.4,17.7,44,0.00,,,0.00,WUHU216HW,2013-01-10 15:18:00,
2013-01-10 10:23:00,47.3,26.9,30.28,NW,315,14.2,17.2,45,0.00,,,0.00,WUHU216HW,2013-01-10 15:23:00,
2013-01-10 10:28:00,46.9,26.0,30.28,North,0,20.9,21.0,44,0.00,,,0.00,WUHU216HW,2013-01-10 15:28:00,
2013-01-10 10:33:00,46.4,26.1,30.28,NNE,23,15.1,21.7,45,0.00,,,0.00,WUHU216HW,2013-01-10 15:33:00,
2013-01-10 10:38:00,46.0,25.7,30.28,North,0,11.4,21.7,45,0.00,,,0.00,WUHU216HW,2013-01-10 15:38:00,
2013-01-10 10:43:00,45.8,26.1,30.29,West,270,14.7,18.6,46,0.00,,,0.00,WUHU216HW,2013-01-10 15:43:00,
2013-01-10 10:48:00,46.5,26.1,30.29,North,0,9.8,16.3,45,0.00,,,0.00,WUHU216HW,2013-01-10 15:48:00,
2013-01-10 10:53:00,46.5,26.1,30.29,NW,315,14.0,18.8,45,0.00,,,0.00,WUHU216HW,2013-01-10 15:53:00,
2013-01-10 10:58:00,46.5,26.7,30.29,WNW,293,10.5,18.8,46,0.00,,,0.00,WUHU216HW,2013-01-10 15:58:00,
2013-01-10 11:03:00,46.8,26.4,30.28,NW,315,10.7,18.1,45,0.00,,,0.00,WUHU216HW,2013-01-10 16:03:00,
2013-01-10 11:08:00,47.0,27.2,30.28,NNW,338,7.8,13.9,46,0.00,,,0.00,WUHU216HW,2013-01-10 16:08:00,
2013-01-10 11:13:00,47.2,26.8,30.28,NW,315,8.1,16.1,45,0.00,,,0.00,WUHU216HW,2013-01-10 16:13:00,
2013-01-10 11:18:00,47.2,26.8,30.28,WNW,293,9.2,16.3,45,0.00,,,0.00,WUHU216HW,2013-01-10 16:18:00,
2013-01-10 11:23:00,47.4,27.0,30.28,NNW,338,10.3,16.3,45,0.00,,,0.00,WUHU216HW,2013-01-10 16:23:00,
2013-01-10 11:28:00,47.5,27.7,30.28,NNW,338,9.4,12.8,46,0.00,,,0.00,WUHU216HW,2013-01-10 16:28:00,
2013-01-10 11:33:00,48.0,26.9,30.29,WNW,293,9.4,15.4,44,0.00,,,0.00,WUHU216HW,2013-01-10 16:33:00,
2013-01-10 11:38:00,47.8,26.8,30.29,West,270,9.2,15.4,44,0.00,,,0.00,WUHU216HW,2013-01-10 16:38:00,
2013-01-10 11:43:00,47.8,26.2,30.29,NW,315,14.9,23.0,43,0.00,,,0.00,WUHU216HW,2013-01-10 16:43:00,
2013-01-10 11:48:00,47.6,26.0,30.29,West,270,15.6,23.0,43,0.00,,,0.00,WUHU216HW,2013-01-10 16:48:00,
2013-01-10 11:53:00,47.6,26.0,30.29,North,0,8.5,18.1,43,0.00,,,0.00,WUHU216HW,2013-01-10 16:53:00,
2013-01-10 11:58:00,47.3,25.8,30.29,NW,315,8.5,18.1,43,0.00,,,0.00,WUHU216HW,2013-01-10 16:58:00,
2013-01-10 12:03:00,47.6,26.6,30.29,NNW,338,6.9,14.3,44,0.00,,,0.00,WUHU216HW,2013-01-10 17:03:00,
2013-01-10 12:08:00,48.2,26.6,30.29,West,270,10.5,15.7,43,0.00,,,0.00,WUHU216HW,2013-01-10 17:08:00,
2013-01-10 12:13:00,48.0,27.0,30.29,North,0,12.4,21.5,44,0.00,,,0.00,WUHU216HW,2013-01-10 17:13:00,
2013-01-10 12:18:00,47.8,26.2,30.29,NW,315,11.4,21.5,43,0.00,,,0.00,WUHU216HW,2013-01-10 17:18:00,
2013-01-10 12:23:00,48.0,27.5,30.29,WNW,293,7.8,16.6,45,0.00,,,0.00,WUHU216HW,2013-01-10 17:23:00,
2013-01-10 12:28:00,47.8,26.2,30.28,SW,225,11.4,16.6,43,0.00,,,0.00,WUHU216HW,2013-01-10 17:28:00,
2013-01-10 12:33:00,48.0,27.0,30.29,NW,315,12.1,16.1,44,0.00,,,0.00,WUHU216HW,2013-01-10 17:33:00,
2013-01-10 12:38:00,48.4,26.8,30.29,WSW,248,15.8,15.9,43,0.00,,,0.00,WUHU216HW,2013-01-10 17:38:00,
2013-01-10 12:43:00,48.2,27.2,30.29,WNW,293,9.2,15.9,44,0.00,,,0.00,WUHU216HW,2013-01-10 17:43:00,
2013-01-10 12:48:00,48.2,26.0,30.29,NW,315,8.5,15.9,42,0.00,,,0.00,WUHU216HW,2013-01-10 17:48:00,
2013-01-10 12:53:00,48.2,26.6,30.29,NNW,338,5.6,13.2,43,0.00,,,0.00,WUHU216HW,2013-01-10 17:53:00,
2013-01-10 12:58:00,48.7,27.0,30.29,NW,315,10.5,13.2,43,0.00,,,0.00,WUHU216HW,2013-01-10 17:58:00,
2013-01-10 13:03:00,48.7,27.0,30.30,WNW,293,5.4,15.4,43,0.00,,,0.00,WUHU216HW,2013-01-10 18:03:00,
2013-01-10 13:08:00,48.7,27.0,30.30,WNW,293,9.8,15.4,43,0.00,,,0.00,WUHU216HW,2013-01-10 18:08:00,
2013-01-10 13:13:00,49.3,27.6,30.31,WNW,293,4.5,14.1,43,0.00,,,0.00,WUHU216HW,2013-01-10 18:13:00,
2013-01-10 13:18:00,49.4,27.7,30.31,NW,315,12.7,14.3,43,0.00,,,0.00,WUHU216HW,2013-01-10 18:18:00,
2013-01-10 13:23:00,49.3,26.4,30.31,WNW,293,9.4,14.3,41,0.00,,,0.00,WUHU216HW,2013-01-10 18:23:00,
2013-01-10 13:28:00,48.7,26.4,30.32,West,270,8.3,16.3,42,0.00,,,0.00,WUHU216HW,2013-01-10 18:28:00,
2013-01-10 13:33:00,48.8,26.6,30.32,NW,315,9.6,16.3,42,0.00,,,0.00,WUHU216HW,2013-01-10 18:33:00,
2013-01-10 13:38:00,48.6,25.8,30.32,NW,315,12.1,13.4,41,0.00,,,0.00,WUHU216HW,2013-01-10 18:38:00,
2013-01-10 13:43:00,48.3,25.5,30.32,NW,315,14.0,14.3,41,0.00,,,0.00,WUHU216HW,2013-01-10 18:43:00,
2013-01-10 13:48:00,48.3,26.1,30.32,West,270,6.9,14.3,42,0.00,,,0.00,WUHU216HW,2013-01-10 18:48:00,
2013-01-10 13:53:00,48.3,26.7,30.32,WNW,293,10.3,14.1,43,0.00,,,0.00,WUHU216HW,2013-01-10 18:53:00,
2013-01-10 13:58:00,47.7,25.5,30.32,West,270,10.5,17.0,42,0.00,,,0.00,WUHU216HW,2013-01-10 18:58:00,
2013-01-10 14:03:00,48.1,27.1,30.33,NNW,338,10.5,17.0,44,0.00,,,0.00,WUHU216HW,2013-01-10 19:03:00,
2013-01-10 14:08:00,48.4,25.6,30.33,NW,315,12.9,14.5,41,0.00,,,0.00,WUHU216HW,2013-01-10 19:08:00,
2013-01-10 14:13:00,48.5,26.3,30.34,WNW,293,11.6,14.5,42,0.00,,,0.00,WUHU216HW,2013-01-10 19:13:00,
2013-01-10 14:18:00,48.0,25.9,30.34,WNW,293,12.7,13.0,42,0.00,,,0.00,WUHU216HW,2013-01-10 19:18:00,
2013-01-10 14:23:00,48.3,26.1,30.34,West,270,7.2,13.2,42,0.00,,,0.00,WUHU216HW,2013-01-10 19:23:00,
2013-01-10 14:28:00,48.3,25.5,30.35,WNW,293,11.0,15.0,41,0.00,,,0.00,WUHU216HW,2013-01-10 19:28:00,
2013-01-10 14:33:00,48.2,24.8,30.35,West,270,15.6,15.7,40,0.00,,,0.00,WUHU216HW,2013-01-10 19:33:00,
2013-01-10 14:38:00,47.8,25.6,30.35,West,270,11.4,15.7,42,0.00,,,0.00,WUHU216HW,2013-01-10 19:38:00,
2013-01-10 14:43:00,47.5,25.4,30.35,WNW,293,14.2,15.7,42,0.00,,,0.00,WUHU216HW,2013-01-10 19:43:00,
2013-01-10 14:48:00,47.7,26.2,30.35,WNW,293,11.4,15.0,43,0.00,,,0.00,WUHU216HW,2013-01-10 19:48:00,
2013-01-10 14:53:00,47.7,25.6,30.36,SW,225,8.1,15.0,42,0.00,,,0.00,WUHU216HW,2013-01-10 19:53:00,
2013-01-10 14:58:00,47.7,25.5,30.36,NW,315,10.5,15.0,42,0.00,,,0.00,WUHU216HW,2013-01-10 19:58:00,
2013-01-10 15:03:00,47.7,25.5,30.37,West,270,4.5,14.5,42,0.00,,,0.00,WUHU216HW,2013-01-10 20:03:00,
2013-01-10 15:09:00,47.6,24.9,30.37,NW,315,7.6,14.3,41,0.00,,,0.00,WUHU216HW,2013-01-10 20:09:00,
2013-01-10 15:14:00,47.8,25.7,30.36,NW,315,9.6,14.3,42,0.00,,,0.00,WUHU216HW,2013-01-10 20:14:00,
2013-01-10 15:19:00,48.3,26.1,30.36,NW,315,11.6,13.9,42,0.00,,,0.00,WUHU216HW,2013-01-10 20:19:00,
2013-01-10 15:24:00,49.2,27.5,30.37,NW,315,7.2,13.9,43,0.00,,,0.00,WUHU216HW,2013-01-10 20:24:00,
2013-01-10 15:29:00,49.8,25.6,30.37,NW,315,10.7,11.6,39,0.00,,,0.00,WUHU216HW,2013-01-10 20:29:00,
2013-01-10 15:34:00,50.0,26.5,30.37,North,0,10.5,11.4,40,0.00,,,0.00,WUHU216HW,2013-01-10 20:34:00,
2013-01-10 15:39:00,50.0,25.2,30.37,WNW,293,7.2,11.4,38,0.00,,,0.00,WUHU216HW,2013-01-10 20:39:00,
2013-01-10 15:44:00,49.1,25.6,30.38,WNW,293,6.3,11.4,40,0.00,,,0.00,WUHU216HW,2013-01-10 20:44:00,
2013-01-10 15:49:00,47.5,24.1,30.39,NW,315,8.5,13.4,40,0.00,,,0.00,WUHU216HW,2013-01-10 20:49:00,
2013-01-10 15:54:00,46.7,24.1,30.39,NW,315,9.8,13.4,41,0.00,,,0.00,WUHU216HW,2013-01-10 20:54:00,
2013-01-10 15:59:00,46.0,24.0,30.39,WNW,293,9.6,13.0,42,0.00,,,0.00,WUHU216HW,2013-01-10 20:59:00,
2013-01-10 16:04:00,45.4,24.0,30.39,NW,315,6.3,13.0,43,0.00,,,0.00,WUHU216HW,2013-01-10 21:04:00,
2013-01-10 16:09:00,45.1,24.4,30.39,West,270,9.2,10.3,44,0.00,,,0.00,WUHU216HW,2013-01-10 21:09:00,
2013-01-10 16:14:00,44.4,24.3,30.38,NW,315,7.6,9.8,45,0.00,,,0.00,WUHU216HW,2013-01-10 21:14:00,
2013-01-10 16:19:00,43.7,24.7,30.38,WNW,293,7.2,9.8,47,0.00,,,0.00,WUHU216HW,2013-01-10 21:19:00,
2013-01-10 16:24:00,43.0,24.0,30.38,NW,315,6.7,17.9,47,0.00,,,0.00,WUHU216HW,2013-01-10 21:24:00,
2013-01-10 16:29:00,42.3,23.9,30.39,NW,315,8.3,17.9,48,0.00,,,0.00,WUHU216HW,2013-01-10 21:29:00,
2013-01-10 16:34:00,41.8,24.0,30.40,NW,315,3.4,16.3,49,0.00,,,0.00,WUHU216HW,2013-01-10 21:34:00,
2013-01-10 16:39:00,41.6,23.8,30.42,NW,315,2.7,8.3,49,0.00,,,0.00,WUHU216HW,2013-01-10 21:39:00,
2013-01-10 16:44:00,41.3,23.5,30.42,WNW,293,3.8,7.4,49,0.00,,,0.00,WUHU216HW,2013-01-10 21:44:00,
2013-01-10 16:49:00,41.3,23.5,30.42,WSW,248,2.5,7.4,49,0.00,,,0.00,WUHU216HW,2013-01-10 21:49:00,
2013-01-10 16:54:00,41.2,23.4,30.42,WSW,248,3.4,6.9,49,0.00,,,0.00,WUHU216HW,2013-01-10 21:54:00,
2013-01-10 16:59:00,40.9,23.2,30.42,West,270,4.9,8.9,49,0.00,,,0.00,WUHU216HW,2013-01-10 21:59:00,
2013-01-10 17:04:00,40.5,23.3,30.42,NW,315,7.2,9.2,50,0.00,,,0.00,WUHU216HW,2013-01-10 22:04:00,
2013-01-10 17:09:00,40.0,23.3,30.41,NW,315,10.3,12.1,51,0.00,,,0.00,WUHU216HW,2013-01-10 22:09:00,
2013-01-10 17:14:00,39.7,23.5,30.41,NW,315,12.9,13.0,52,0.00,,,0.00,WUHU216HW,2013-01-10 22:14:00,
2013-01-10 17:19:00,39.5,23.3,30.41,West,270,10.7,13.9,52,0.00,,,0.00,WUHU216HW,2013-01-10 22:19:00,
2013-01-10 17:24:00,39.5,23.7,30.42,WSW,248,5.1,13.9,53,0.00,,,0.00,WUHU216HW,2013-01-10 22:24:00,
2013-01-10 17:29:00,39.2,23.1,30.43,WNW,293,5.4,8.3,52,0.00,,,0.00,WUHU216HW,2013-01-10 22:29:00,
2013-01-10 17:34:00,39.1,22.5,30.42,NW,315,7.6,7.6,51,0.00,,,0.00,WUHU216HW,2013-01-10 22:34:00,
2013-01-10 17:39:00,38.9,22.7,30.42,NW,315,4.9,9.2,52,0.00,,,0.00,WUHU216HW,2013-01-10 22:39:00,
2013-01-10 17:44:00,38.8,22.7,30.43,WNW,293,11.9,11.9,52,0.00,,,0.00,WUHU216HW,2013-01-10 22:44:00,
2013-01-10 17:49:00,38.4,22.7,30.43,WNW,293,6.5,11.9,53,0.00,,,0.00,WUHU216HW,2013-01-10 22:49:00,
2013-01-10 17:54:00,38.2,23.0,30.43,WNW,293,6.9,11.9,54,0.00,,,0.00,WUHU216HW,2013-01-10 22:54:00,
2013-01-10 17:59:00,38.0,22.4,30.43,SW,225,2.9,10.5,53,0.00,,,0.00,WUHU216HW,2013-01-10 22:59:00,
2013-01-10 18:04:00,38.0,22.8,30.43,WNW,293,3.4,7.4,54,0.00,,,0.00,WUHU216HW,2013-01-10 23:04:00,
2013-01-10 18:09:00,38.0,22.8,30.44,NW,315,2.5,5.6,54,0.00,,,0.00,WUHU216HW,2013-01-10 23:09:00,
2013-01-10 18:14:00,37.7,22.6,30.44,WNW,293,4.3,5.4,54,0.00,,,0.00,WUHU216HW,2013-01-10 23:14:00,
2013-01-10 18:19:00,37.5,22.3,30.44,NW,315,5.6,9.6,54,0.00,,,0.00,WUHU216HW,2013-01-10 23:19:00,
2013-01-10 18:24:00,37.3,22.1,30.44,NW,315,6.7,9.6,54,0.00,,,0.00,WUHU216HW,2013-01-10 23:24:00,
2013-01-10 18:30:00,37.0,22.8,30.44,West,270,6.0,10.1,56,0.00,,,0.00,WUHU216HW,2013-01-10 23:30:00,
2013-01-10 18:35:00,37.0,22.8,30.45,North,0,1.8,10.1,56,0.00,,,0.00,WUHU216HW,2013-01-10 23:35:00,
2013-01-10 18:40:00,36.9,22.3,30.45,WNW,293,4.7,9.2,55,0.00,,,0.00,WUHU216HW,2013-01-10 23:40:00,
2013-01-10 18:45:00,36.8,23.0,30.44,West,270,6.3,11.6,57,0.00,,,0.00,WUHU216HW,2013-01-10 23:45:00,
2013-01-10 18:50:00,36.8,23.0,30.44,West,270,11.0,13.0,57,0.00,,,0.00,WUHU216HW,2013-01-10 23:50:00,
2013-01-10 18:55:00,36.7,23.0,30.44,WNW,293,10.3,13.0,57,0.00,,,0.00,WUHU216HW,2013-01-10 23:55:00,
2013-01-10 19:00:00,36.5,23.2,30.44,WNW,293,5.4,11.4,58,0.00,,,0.00,WUHU216HW,2013-01-11 00:00:00,
2013-01-10 19:05:00,36.1,23.2,30.44,WNW,293,4.9,8.5,59,0.00,,,0.00,WUHU216HW,2013-01-11 00:05:00,
2013-01-10 19:10:00,36.1,22.8,30.44,North,0,5.6,9.8,58,0.00,,,0.00,WUHU216HW,2013-01-11 00:10:00,
2013-01-10 19:16:00,36.3,23.4,30.45,NNW,338,4.7,10.3,59,0.00,,,0.00,WUHU216HW,2013-01-11 00:16:00,
2013-01-10 19:21:00,36.5,23.6,30.45,NW,315,3.8,10.3,59,0.00,,,0.00,WUHU216HW,2013-01-11 00:21:00,
2013-01-10 19:26:00,36.3,23.4,30.45,NW,315,4.7,8.5,59,0.00,,,0.00,WUHU216HW,2013-01-11 00:26:00,
2013-01-10 19:31:00,36.1,23.2,30.46,NNE,23,2.2,8.5,59,0.00,,,0.00,WUHU216HW,2013-01-11 00:31:00,
2013-01-10 19:36:00,35.9,23.0,30.47,WNW,293,0.4,8.3,59,0.00,,,0.00,WUHU216HW,2013-01-11 00:36:00,
2013-01-10 19:41:00,35.8,23.3,30.47,NE,45,2.2,3.6,60,0.00,,,0.00,WUHU216HW,2013-01-11 00:41:00,
2013-01-10 19:46:00,35.6,23.5,30.46,NNW,338,4.7,4.7,61,0.00,,,0.00,WUHU216HW,2013-01-11 00:46:00,
2013-01-10 19:51:00,35.4,23.3,30.46,WNW,293,6.0,6.0,61,0.00,,,0.00,WUHU216HW,2013-01-11 00:51:00,
2013-01-10 19:56:00,35.4,23.3,30.47,WNW,293,5.8,6.0,61,0.00,,,0.00,WUHU216HW,2013-01-11 00:56:00,
2013-01-10 20:01:00,35.2,23.2,30.47,WNW,293,1.1,6.0,61,0.00,,,0.00,WUHU216HW,2013-01-11 01:01:00,
2013-01-10 20:06:00,35.0,23.0,30.47,WNW,293,5.4,6.9,61,0.00,,,0.00,WUHU216HW,2013-01-11 01:06:00,
2013-01-10 20:11:00,35.0,23.0,30.46,NNW,338,3.1,7.4,61,0.00,,,0.00,WUHU216HW,2013-01-11 01:11:00,
2013-01-10 20:16:00,34.9,23.3,30.47,West,270,4.7,7.4,62,0.00,,,0.00,WUHU216HW,2013-01-11 01:16:00,
2013-01-10 20:21:00,34.9,23.3,30.47,NW,315,4.0,6.3,62,0.00,,,0.00,WUHU216HW,2013-01-11 01:21:00,
2013-01-10 20:26:00,34.9,23.3,30.47,NW,315,4.0,4.7,62,0.00,,,0.00,WUHU216HW,2013-01-11 01:26:00,
2013-01-10 21:00:00,34.0,22.4,30.49,NW,315,1.1,1.1,62,0.00,,,0.00,WUHU216HW,2013-01-11 02:00:00,
2013-01-10 21:05:00,34.0,22.4,30.49,NW,315,1.1,1.1,62,0.00,,,0.00,WUHU216HW,2013-01-11 02:05:00,
2013-01-10 22:00:00,32.9,22.9,30.52,West,270,1.3,1.3,66,0.00,,,0.00,WUHU216HW,2013-01-11 03:00:00,
2013-01-10 22:05:00,32.9,22.9,30.52,West,270,1.3,1.3,66,0.00,,,0.00,WUHU216HW,2013-01-11 03:05:00,
2013-01-10 23:00:00,32.7,22.7,30.52,WSW,248,3.8,3.8,66,0.00,,,0.00,WUHU216HW,2013-01-11 04:00:00,
2013-01-10 23:05:00,32.5,22.8,30.53,WNW,293,4.3,6.0,67,0.00,,,0.00,WUHU216HW,2013-01-11 04:05:00,
2013-01-10 23:10:00,32.5,22.8,30.52,NW,315,2.7,6.0,67,0.00,,,0.00,WUHU216HW,2013-01-11 04:10:00,
2013-01-10 23:15:00,32.5,22.8,30.52,West,270,3.1,4.7,67,0.00,,,0.00,WUHU216HW,2013-01-11 04:15:00,
2013-01-10 23:20:00,32.5,22.8,30.52,NW,315,4.0,4.7,67,0.00,,,0.00,WUHU216HW,2013-01-11 04:20:00,
2013-01-10 23:25:00,32.2,22.5,30.52,WNW,293,2.9,5.8,67,0.00,,,0.00,WUHU216HW,2013-01-11 04:25:00,
2013-01-10 23:30:00,32.0,23.0,30.52,NW,315,2.5,5.8,69,0.00,,,0.00,WUHU216HW,2013-01-11 04:30:00,
2013-01-10 23:35:00,32.0,22.7,30.52,NNW,338,3.4,4.5,68,0.00,,,0.00,WUHU216HW,2013-01-11 04:35:00,
2013-01-10 23:40:00,31.8,22.5,30.51,NW,315,4.7,6.3,68,0.00,,,0.00,WUHU216HW,2013-01-11 04:40:00,
2013-01-10 23:45:00,32.0,22.3,30.51,WNW,293,4.0,6.3,67,0.00,,,0.00,WUHU216HW,2013-01-11 04:45:00,
2013-01-10 23:50:00,32.0,22.3,30.51,NW,315,6.7,7.2,67,0.00,,,0.00,WUHU216HW,2013-01-11 04:50:00,
2013-01-10 23:55:00,32.0,23.0,30.50,WSW,248,4.9,7.2,69,0.00,,,0.00,WUHU216HW,2013-01-11 04:55:00,